EW4443 Weather Reports


time (UTC)temp
F
wind
direction
speed
knots
gust
knots
rain 1hr
in
rain 24hr
in
rain mn
in
humidity
%
barometer
mb
20260509221009 103 225 0.9 6.1 0.00 0.00 0.00 12 1005.9
20260509220509 103 45 0.9 5.2 0.00 0.00 0.00 12 1005.5
20260509220009 103 135 0.9 5.2 0.00 0.00 0.00 12 1005.9
20260509215508 103 338 0.9 6.1 0.00 0.00 0.00 12 1005.9
20260509215009 103 293 1.7 7.0 0.00 0.00 0.00 12 1006.2
20260509214510 103 203 1.7 7.0 0.00 0.00 0.00 11 1005.9
20260509214010 102 293 0.9 4.3 0.00 0.00 0.00 12 1006.2
20260509213510 102 68 0.9 7.0 0.00 0.00 0.00 12 1006.2
20260509213010 102 270 0.9 7.0 0.00 0.00 0.00 12 1006.5
20260509212740 102 45 1.7 7.0 0.00 0.00 0.00 12 1006.5
20260509212010 102 180 1.7 7.8 0.00 0.00 0.00 12 1006.5
20260509211504 101 270 1.7 7.8 0.00 0.00 0.00 12 1006.5
20260509210950 101 270 0.0 5.2 0.00 0.00 0.00 13 1006.5
20260509210721 101 338 0.9 5.2 0.00 0.00 0.00 12 1006.5
20260509210221 101 45 0.9 6.1 0.00 0.00 0.00 13 1006.9
20260509205722 101 180 0.9 7.0 0.00 0.00 0.00 12 1007.3
20260509204951 101 225 1.7 7.0 0.00 0.00 0.00 12 1007.3
20260509204451 101 135 0.9 6.1 0.00 0.00 0.00 12 1007.3
20260509203949 101 270 1.7 6.1 0.00 0.00 0.00 12 1007.3
20260509203448 100 270 0.9 7.0 0.00 0.00 0.00 12 1007.3
20260509202949 100 270 1.7 7.0 0.00 0.00 0.00 12 1007.6
20260509202449 100 23 0.9 7.8 0.00 0.00 0.00 12 1007.3
20260509201949 100 203 1.7 7.8 0.00 0.00 0.00 12 1007.6
20260509201450 100 23 0.9 6.1 0.00 0.00 0.00 13 1007.6
20260509200949 100 23 0.9 4.3 0.00 0.00 0.00 13 1008.0
20260509200450 100 293 0.9 3.5 0.00 0.00 0.00 13 1008.0
20260509195949 100 135 0.9 5.2 0.00 0.00 0.00 15 1008.0
20260509195449 99 293 0.9 5.2 0.00 0.00 0.00 15 1008.0
20260509195220 99 225 0.9 4.3 0.00 0.00 0.00 15 1008.3
20260509194719 99 23 0.9 4.3 0.00 0.00 0.00 13 1008.0
20260509193949 99 270 0.9 4.3 0.00 0.00 0.00 15 1008.3
20260509193448 98 270 0.9 4.3 0.00 0.00 0.00 15 1008.3
20260509192950 98 68 0.9 3.5 0.00 0.00 0.00 13 1008.3
20260509192449 98 0 0.9 5.2 0.00 0.00 0.00 15 1008.3
20260509191949 98 338 0.9 5.2 0.00 0.00 0.00 13 1008.3
20260509191452 97 158 0.0 5.2 0.00 0.00 0.00 15 1008.7
20260509190950 97 270 0.9 5.2 0.00 0.00 0.00 15 1008.7
20260509190718 97 270 0.9 4.3 0.00 0.00 0.00 15 1008.7
20260509185948 97 225 0.0 3.5 0.00 0.00 0.00 15 1008.7
20260509185449 97 135 0.0 4.3 0.00 0.00 0.00 15 1008.7
20260509184948 97 180 0.9 4.3 0.00 0.00 0.00 13 1008.7
20260509184720 97 158 0.0 3.5 0.00 0.00 0.00 15 1009.0
20260509183949 97 203 0.0 3.5 0.00 0.00 0.00 15 1009.0
20260509183450 97 225 0.9 3.5 0.00 0.00 0.00 15 1009.0
20260509182949 96 180 0.0 3.5 0.00 0.00 0.00 15 1009.3
20260509182438 96 90 0.0 5.2 0.00 0.00 0.00 15 1009.0
20260509182201 96 158 0.9 5.2 0.00 0.00 0.00 15 1009.3
20260509181430 96 45 0.9 4.3 0.00 0.00 0.00 15 1009.3
20260509180930 96 270 0.9 4.3 0.00 0.00 0.00 15 1009.3
20260509180429 95 158 0.0 2.6 0.00 0.00 0.00 15 1009.7
20260509175931 95 270 0.0 2.6 0.00 0.00 0.00 15 1009.7
20260509175431 95 180 0.0 2.6 0.00 0.00 0.00 17 1009.7
20260509174930 95 338 0.0 2.6 0.00 0.00 0.00 17 1009.7
20260509174430 94 113 0.0 4.3 0.00 0.00 0.00 17 1009.7
20260509174202 94 158 0.9 4.3 0.00 0.00 0.00 17 1009.7
20260509173701 94 180 0.9 3.5 0.00 0.00 0.00 17 1009.7
20260509172929 93 23 0.0 2.6 0.00 0.00 0.00 17 1010.0
20260509172429 93 158 0.0 2.6 0.00 0.00 0.00 17 1010.0
20260509171929 93 23 0.0 2.6 0.00 0.00 0.00 19 1010.0
20260509171431 92 203 0.9 2.6 0.00 0.00 0.00 17 1010.0
20260509171202 92 203 0.0 1.7 0.00 0.00 0.00 19 1010.0
20260509170430 92 45 0.0 2.6 0.00 0.00 0.00 19 1010.0
20260509170202 91 248 0.0 2.6 0.00 0.00 0.00 19 1010.0
20260509165431 91 180 0.0 3.5 0.00 0.00 0.00 19 1010.0
20260509164929 91 45 0.0 3.5 0.00 0.00 0.00 19 1010.0
20260509164429 90 158 0.0 3.5 0.00 0.00 0.00 19 1010.0
20260509163929 90 180 0.9 2.6 0.00 0.00 0.00 20 1010.0
20260509163430 90 225 0.0 1.7 0.00 0.00 0.00 20 1010.0
20260509162931 89 180 0.0 2.6 0.00 0.00 0.00 20 1010.0
20260509162701 89 203 0.0 2.6 0.00 0.00 0.00 20 1010.0
20260509161930 88 180 0.9 3.5 0.00 0.00 0.00 20 1010.0
20260509161431 88 225 0.0 3.5 0.00 0.00 0.00 20 1010.0
20260509160930 87 293 0.0 2.6 0.00 0.00 0.00 20 1010.0
20260509160411 87 68 0.0 2.6 0.00 0.00 0.00 20 1010.0
20260509155910 86 180 0.0 2.6 0.00 0.00 0.00 22 1010.0
20260509155410 86 135 0.0 2.6 0.00 0.00 0.00 22 1010.0
20260509155141 85 158 0.0 2.6 0.00 0.00 0.00 22 1010.0
20260509154410 85 158 0.0 1.7 0.00 0.00 0.00 22 1010.0
20260509153911 85 180 0.0 0.9 0.00 0.00 0.00 22 1010.0
20260509153411 84 225 0.0 0.9 0.00 0.00 0.00 22 1010.0
20260509152912 84 68 0.0 1.7 0.00 0.00 0.00 22 1009.7
20260509152643 83 180 0.0 1.7 0.00 0.00 0.00 22 1010.0
20260509151910 83 203 0.0 1.7 0.00 0.00 0.00 25 1009.7
20260509151410 82 225 0.0 1.7 0.00 0.00 0.00 25 1010.0
20260509150910 81 248 0.0 1.7 0.00 0.00 0.00 25 1010.0
20260509150410 81 203 0.0 0.9 0.00 0.00 0.00 27 1009.7
20260509145910 80 293 0.0 1.7 0.00 0.00 0.00 27 1010.0
20260509145412 79 180 0.0 1.7 0.00 0.00 0.00 27 1009.7
20260509145142 79 270 0.0 0.9 0.00 0.00 0.00 27 1010.0
20260509144412 78 68 0.0 0.9 0.00 0.00 0.00 27 1010.0
20260509144143 78 68 0.0 0.9 0.00 0.00 0.00 27 1010.0
20260509143411 77 248 0.0 0.9 0.00 0.00 0.00 29 1009.7
20260509142914 76 225 0.0 0.0 0.00 0.00 0.00 30 1010.0
20260509142910 76 338 0.0 0.0 0.00 0.00 0.00 29 1010.0
20260509141910 75 338 0.0 0.9 0.00 0.00 0.00 30 1009.7
20260509141410 74 270 0.0 1.7 0.00 0.00 0.00 30 1009.7
20260509140911 74 90 0.0 1.7 0.00 0.00 0.00 30 1009.7
20260509140642 74 68 0.0 0.9 0.00 0.00 0.00 30 1009.7
20260509140142 73 68 0.0 0.9 0.00 0.00 0.00 30 1009.3
20260509135411 73 23 0.0 0.9 0.00 0.00 0.00 30 1009.3
20260509134911 72 248 0.0 0.9 0.00 0.00 0.00 30 1009.7
20260509134409 72 90 0.0 0.9 0.00 0.00 0.00 31 1009.7
20260509133912 72 203 0.0 1.7 0.00 0.00 0.00 30 1009.3
20260509133410 71 338 0.0 1.7 0.00 0.00 0.00 30 1009.3
20260509132910 71 23 0.0 1.7 0.00 0.00 0.00 30 1009.3
20260509132411 71 23 0.0 1.7 0.00 0.00 0.00 29 1009.0
20260509131911 71 225 0.0 1.7 0.00 0.00 0.00 29 1009.3
20260509131411 71 270 0.0 1.7 0.00 0.00 0.00 29 1009.0
20260509130912 71 23 0.0 1.7 0.00 0.00 0.00 29 1009.0
20260509130411 70 225 0.0 1.7 0.00 0.00 0.00 30 1009.0
20260509125902 70 135 0.0 1.7 0.00 0.00 0.00 30 1009.0
20260509125352 70 23 0.0 1.7 0.00 0.00 0.00 30 1009.0
20260509124855 70 203 0.0 1.7 0.00 0.00 0.00 30 1009.0
20260509124851 70 113 0.0 1.7 0.00 0.00 0.00 30 1008.7
20260509124123 70 338 0.0 1.7 0.00 0.00 0.00 30 1008.7
20260509123353 70 315 0.0 0.0 0.00 0.00 0.00 30 1008.7
20260509122852 70 293 0.0 0.0 0.00 0.00 0.00 30 1008.7
20260509122353 70 23 0.0 0.0 0.00 0.00 0.00 30 1008.3
20260509121854 71 203 0.0 0.0 0.00 0.00 0.00 30 1008.3
20260509121352 71 338 0.0 0.0 0.00 0.00 0.00 30 1008.3
20260509120852 71 270 0.0 0.0 0.00 0.00 0.00 29 1008.3
20260509120351 71 293 0.0 0.0 0.00 0.00 0.00 30 1008.3
20260509115851 71 45 0.0 0.0 0.00 0.00 0.00 31 1008.3
20260509115351 71 0 0.0 0.0 0.00 0.00 0.00 30 1008.3
20260509114853 71 315 0.0 0.0 0.00 0.00 0.00 30 1008.0
20260509114353 71 113 0.0 0.0 0.00 0.00 0.00 30 1008.0
20260509113852 72 270 0.0 0.0 0.00 0.00 0.00 31 1008.0
20260509113353 72 0 0.0 0.0 0.00 0.00 0.00 30 1008.0
20260509112852 72 90 0.0 0.0 0.00 0.00 0.00 31 1008.0
20260509112351 72 45 0.0 0.0 0.00 0.00 0.00 32 1008.0
20260509112122 72 23 0.0 0.0 0.00 0.00 0.00 31 1008.0
20260509111352 72 68 0.0 2.6 0.00 0.00 0.00 31 1008.0
20260509110851 72 23 0.0 2.6 0.00 0.00 0.00 31 1008.0
20260509110353 73 90 0.0 0.0 0.00 0.00 0.00 30 1008.0
20260509110124 73 45 0.0 0.0 0.00 0.00 0.00 30 1008.0
20260509105352 73 0 0.0 0.0 0.00 0.00 0.00 30 1008.0
20260509104853 73 23 0.0 0.0 0.00 0.00 0.00 31 1007.6
20260509104623 73 203 0.0 2.6 0.00 0.00 0.00 31 1007.6
20260509103852 73 45 0.9 2.6 0.00 0.00 0.00 32 1008.0
20260509103351 73 68 0.0 1.7 0.00 0.00 0.00 31 1007.6
20260509102852 73 203 0.0 0.0 0.00 0.00 0.00 31 1007.6
20260509102351 74 0 0.0 0.0 0.00 0.00 0.00 32 1007.6
20260509101853 74 0 0.0 0.0 0.00 0.00 0.00 31 1007.6
20260509101352 74 23 0.0 0.0 0.00 0.00 0.00 31 1007.6
20260509100853 74 23 0.0 0.0 0.00 0.00 0.00 31 1007.6
20260509100353 74 68 0.0 0.0 0.00 0.00 0.00 31 1008.0
20260509095852 74 293 0.0 0.0 0.00 0.00 0.00 31 1007.6
20260509095353 74 293 0.0 0.0 0.00 0.00 0.00 31 1007.6
20260509095122 75 270 0.0 0.0 0.00 0.00 0.00 31 1007.6
20260509094352 75 293 0.0 0.0 0.00 0.00 0.00 32 1007.6
20260509094121 75 315 0.0 0.0 0.00 0.00 0.00 31 1007.6
20260509093351 75 315 0.0 0.0 0.00 0.00 0.00 30 1007.6
20260509092852 75 0 0.0 0.0 0.00 0.00 0.00 30 1008.0
20260509092353 75 0 0.0 0.0 0.00 0.00 0.00 30 1007.6
20260509091852 76 0 0.0 0.0 0.00 0.00 0.00 30 1008.0
20260509091353 76 0 0.0 0.0 0.00 0.00 0.00 30 1007.6
20260509091123 76 338 0.0 0.0 0.00 0.00 0.00 30 1007.6
20260509090352 76 338 0.0 0.0 0.00 0.00 0.00 30 1008.0
20260509085852 76 315 0.0 0.0 0.00 0.00 0.00 30 1007.6
20260509085622 76 0 0.0 0.0 0.00 0.00 0.00 30 1007.6
20260509084851 76 248 0.0 0.0 0.00 0.00 0.00 30 1007.6
20260509084353 77 68 0.0 0.0 0.00 0.00 0.00 30 1007.6
20260509083853 77 68 0.0 0.0 0.00 0.00 0.00 30 1008.0
20260509083624 77 68 0.0 0.0 0.00 0.00 0.00 30 1007.6
20260509082852 77 45 0.0 0.0 0.00 0.00 0.00 30 1007.6
20260509082623 77 23 0.0 0.0 0.00 0.00 0.00 29 1007.6
20260509081851 78 23 0.0 0.0 0.00 0.00 0.00 30 1007.6
20260509081353 78 23 0.0 0.0 0.00 0.00 0.00 29 1007.6
20260509080851 78 90 0.0 0.0 0.00 0.00 0.00 29 1007.3
20260509080351 78 90 0.0 0.0 0.00 0.00 0.00 27 1007.6
20260509075851 78 90 0.0 0.0 0.00 0.00 0.00 29 1007.3
20260509075623 78 68 0.0 0.0 0.00 0.00 0.00 27 1007.6
20260509074853 79 23 0.0 1.7 0.00 0.00 0.00 27 1007.6
20260509074352 79 45 0.0 1.7 0.00 0.00 0.00 27 1007.6
20260509074123 79 23 0.0 0.0 0.00 0.00 0.00 27 1007.6
20260509073622 79 23 0.0 0.0 0.00 0.00 0.00 25 1007.3
20260509072851 80 68 0.0 0.0 0.00 0.00 0.00 27 1007.3
20260509072351 80 180 0.0 0.0 0.00 0.00 0.00 25 1007.3
20260509072122 80 113 0.0 0.0 0.00 0.00 0.00 25 1007.3
20260509071622 80 113 0.0 0.0 0.00 0.00 0.00 25 1007.3
20260509070853 81 135 0.0 0.0 0.00 0.00 0.00 27 1007.3
20260509070352 81 135 0.0 0.0 0.00 0.00 0.00 25 1007.3
20260509065853 81 135 0.0 0.0 0.00 0.00 0.00 25 1007.3
20260509065352 82 135 0.0 0.0 0.00 0.00 0.00 25 1007.3
20260509065124 82 203 0.0 0.0 0.00 0.00 0.00 25 1007.3
20260509064351 82 203 0.0 0.0 0.00 0.00 0.00 25 1007.3
20260509063851 82 203 0.0 0.0 0.00 0.00 0.00 25 1007.3
20260509063351 82 203 0.0 0.0 0.00 0.00 0.00 25 1007.3
20260509062851 83 203 0.0 0.0 0.00 0.00 0.00 25 1007.3
20260509062352 83 203 0.0 0.0 0.00 0.00 0.00 22 1007.3
20260509061834 83 203 0.0 0.0 0.00 0.00 0.00 22 1007.3
20260509061334 83 203 0.0 0.9 0.00 0.00 0.00 22 1007.3
20260509061104 83 203 0.0 0.9 0.00 0.00 0.00 22 1007.3
20260509060334 83 203 0.0 0.0 0.00 0.00 0.00 22 1006.9
20260509055833 83 270 0.0 0.9 0.00 0.00 0.00 22 1007.3
20260509055602 84 270 0.0 1.7 0.00 0.00 0.00 22 1007.3
20260509054832 84 248 0.0 1.7 0.00 0.00 0.00 22 1007.3
20260509054333 84 270 0.0 0.9 0.00 0.00 0.00 22 1006.9
20260509054104 85 270 0.0 1.7 0.00 0.00 0.00 22 1006.9
20260509053333 85 203 0.0 1.7 0.00 0.00 0.00 22 1007.3
20260509053104 85 270 0.0 1.7 0.00 0.00 0.00 22 1006.9
20260509052333 85 248 0.0 0.0 0.00 0.00 0.00 22 1007.3
20260509051834 86 248 0.0 0.0 0.00 0.00 0.00 24 1007.3
20260509051332 86 270 0.0 0.0 0.00 0.00 0.00 24 1007.3
20260509050832 86 248 0.0 0.0 0.00 0.00 0.00 22 1007.3
20260509050333 87 270 0.0 0.0 0.00 0.00 0.00 20 1006.9
20260509045833 87 225 0.0 0.0 0.00 0.00 0.00 20 1007.3
20260509045333 87 225 0.0 1.7 0.00 0.00 0.00 20 1007.3
20260509044833 87 203 0.0 2.6 0.00 0.00 0.00 20 1007.3
20260509044334 88 225 0.0 3.5 0.00 0.00 0.00 20 1006.9
20260509043834 88 248 0.0 3.5 0.00 0.00 0.00 19 1006.9
20260509043334 88 180 0.0 2.6 0.00 0.00 0.00 19 1006.9
20260509042834 88 248 0.0 4.3 0.00 0.00 0.00 17 1006.9
20260509042332 88 248 0.0 4.3 0.00 0.00 0.00 17 1006.9
20260509041833 89 225 0.0 2.6 0.00 0.00 0.00 19 1006.9
20260509041603 89 225 0.0 2.6 0.00 0.00 0.00 19 1006.5
20260509040832 89 248 0.0 2.6 0.00 0.00 0.00 19 1006.5
20260509040334 89 180 0.0 2.6 0.00 0.00 0.00 17 1006.2
20260509035834 90 225 0.0 2.6 0.00 0.00 0.00 17 1006.2
20260509035333 90 225 0.0 2.6 0.00 0.00 0.00 17 1006.2
20260509035104 90 225 0.0 3.5 0.00 0.00 0.00 17 1006.2
20260509034334 90 203 0.0 3.5 0.00 0.00 0.00 17 1006.2
20260509034102 90 225 0.9 3.5 0.00 0.00 0.00 17 1006.2
20260509033332 90 248 0.0 2.6 0.00 0.00 0.00 17 1005.9
20260509032832 91 180 0.0 2.6 0.00 0.00 0.00 17 1006.2
20260509032603 91 225 0.0 0.9 0.00 0.00 0.00 19 1005.9
20260509031832 92 225 0.0 0.0 0.00 0.00 0.00 19 1005.9
20260509031605 92 248 0.0 0.9 0.00 0.00 0.00 17 1005.9
20260509030834 92 203 0.0 1.7 0.00 0.00 0.00 17 1005.9
20260509030333 93 203 0.0 1.7 0.00 0.00 0.00 17 1005.9
20260509030053 93 180 0.0 0.9 0.00 0.00 0.00 15 1005.5
20260509025314 94 158 0.0 1.7 0.00 0.00 0.00 15 1005.5
20260509024813 94 158 0.0 1.7 0.00 0.00 0.00 15 1005.5
20260509024314 94 158 0.0 1.7 0.00 0.00 0.00 15 1005.5
20260509023813 94 180 0.0 1.7 0.00 0.00 0.00 15 1005.5
20260509023314 94 293 0.0 1.7 0.00 0.00 0.00 13 1005.5
20260509022816 95 203 0.0 2.6 0.00 0.00 0.00 13 1005.5
20260509022314 95 315 0.9 3.5 0.00 0.00 0.00 13 1005.5
20260509021814 95 248 0.9 4.3 0.00 0.00 0.00 13 1005.2
20260509021314 95 270 0.0 4.3 0.00 0.00 0.00 13 1005.5
20260509020815 95 225 0.9 4.3 0.00 0.00 0.00 13 1005.2
20260509020312 96 270 0.9 4.3 0.00 0.00 0.00 13 1005.5
20260509015813 96 270 0.9 7.8 0.00 0.00 0.00 13 1005.2
20260509015313 96 270 0.9 7.8 0.00 0.00 0.00 12 1005.2
20260509014814 96 270 0.9 6.1 0.00 0.00 0.00 12 1005.2
20260509014314 96 270 0.9 8.7 0.00 0.00 0.00 12 1005.2
20260509013814 96 203 1.7 8.7 0.00 0.00 0.00 13 1005.2
20260509013545 97 248 0.9 7.0 0.00 0.00 0.00 12 1005.2
20260509012814 97 270 1.7 7.8 0.00 0.00 0.00 12 1005.2
20260509012314 97 293 0.9 7.8 0.00 0.00 0.00 13 1004.8
20260509011813 98 270 0.9 6.1 0.00 0.00 0.00 12 1005.2
20260509011312 98 270 1.7 6.1 0.00 0.00 0.00 13 1005.5
20260509011044 98 203 1.7 8.7 0.00 0.00 0.00 12 1005.2
20260509010313 98 248 0.9 8.7 0.00 0.00 0.00 12 1005.2
20260509005814 98 270 0.9 6.1 0.00 0.00 0.00 13 1005.2
20260509005313 98 270 1.7 6.1 0.00 0.00 0.00 12 1005.5
20260509004813 99 315 1.7 6.1 0.00 0.00 0.00 12 1005.2
20260509004313 99 158 0.9 5.2 0.00 0.00 0.00 12 1005.2
20260509003816 99 0 1.7 7.8 0.00 0.00 0.00 13 1005.5
20260509003812 99 270 0.9 7.0 0.00 0.00 0.00 13 1005.5
20260509002817 100 270 0.9 6.1 0.00 0.00 0.00 12 1005.5
20260509002812 100 293 1.7 7.8 0.00 0.00 0.00 12 1005.5
20260509001813 100 203 1.7 6.1 0.00 0.00 0.00 12 1005.5
20260509001313 100 338 0.9 7.0 0.00 0.00 0.00 12 1005.5
20260509000813 100 45 1.7 7.0 0.00 0.00 0.00 12 1005.9
20260509000313 100 225 1.7 8.7 0.00 0.00 0.00 12 1005.5
20260508235813 100 270 1.7 8.7 0.00 0.00 0.00 12 1005.9
20260508235312 100 293 0.9 7.0 0.00 0.00 0.00 12 1005.5
20260508234812 101 180 0.9 7.8 0.00 0.00 0.00 12 1005.9
20260508234311 101 248 1.7 9.6 0.00 0.00 0.00 12 1005.9
20260508233811 101 113 1.7 9.6 0.00 0.00 0.00 12 1005.9
20260508233312 101 270 1.7 7.8 0.00 0.00 0.00 12 1005.9
20260508232813 101 315 1.7 7.8 0.00 0.00 0.00 12 1005.9
20260508232313 101 225 1.7 7.0 0.00 0.00 0.00 12 1005.9
20260508231812 101 90 1.7 9.6 0.00 0.00 0.00 12 1005.9
20260508231312 100 68 1.7 9.6 0.00 0.00 0.00 12 1005.9
20260508231042 100 270 1.7 9.6 0.00 0.00 0.00 12 1006.2
20260508230311 100 23 2.6 9.6 0.00 0.00 0.00 12 1005.9
20260508225812 100 23 1.7 7.0 0.00 0.00 0.00 12 1005.9
20260508225311 100 203 1.7 7.8 0.00 0.00 0.00 12 1006.2
20260508224812 100 225 2.6 7.8 0.00 0.00 0.00 12 1006.2
20260508224312 100 270 1.7 7.8 0.00 0.00 0.00 12 1006.2
20260508223811 100 180 1.7 11.3 0.00 0.00 0.00 12 1006.2
20260508223312 100 225 1.7 11.3 0.00 0.00 0.00 13 1006.2
20260508222811 100 293 1.7 7.8 0.00 0.00 0.00 12 1006.5
20260508222310 100 203 1.7 8.7 0.00 0.00 0.00 12 1006.5
20260508222042 100 203 1.7 8.7 0.00 0.00 0.00 12 1006.5